Rbgn^[z[y[W
メイン
   新天体発見情報
     Comet P/2021 R8 (Sheppard)
投稿するにはまず登録を

スレッド表示 | 新しいものから 前のトピック | 次のトピック | 下へ
投稿者 スレッド
佐藤裕久
投稿日時: 2021-12-20 14:10
モデレータ
登録日: 2005-6-12
居住地: 日本
投稿: 2286
オンライン
Comet P/2021 R8 (Sheppard)

D. Tholen (ハワイ大学、天文学研究所)の通報によると、9月5日と6日、Scott Sheppardは、
Mauna Keaの8.2-m f/2.2すばる望遠鏡の "Hyper Suprime-Cam" CCDで淡い彗星を発見した。
この彗星の頭部は、長時間の恒星追尾露出(9月5日は290秒、9月6日は250秒)で引きずられ
ている。核に近い部分の構造は説明しにくいが、p.a.240°に約15 "ほど尾が伸びている。

彗星機能の報告は次のとおり、

OC   Date        Reporter           Coma    Tail    PA          Exposures
T09  2021-09-06  S. Sheppard        0".9    15"    240 
F52  2021-09-30  R. Weryk           0".6                          4x45s

発見位置は次のとおり、

     2021 UT             R.A. (2000) Decl.       Mag.   Observer
     Sept. 5.54775   23 20 51.79   - 4 09 35.3   21.6   Sheppard
           6.48120   23 20 16.13   - 4 14 58.1   21.8     "

MPCの準放物線軌道要素、位置推算表は次のとおり、

Orbital elements:
    P/2021 R8 (Sheppard)                                                        
Epoch 2021 Sept. 23.0 TT = JDT 2459480.5                                        
T 2021 Oct. 7.49504 TT                                  Bell                    
q   2.1310223            (2000.0)            P               Q                  
n   0.18793504     Peri.  190.78631     +0.99923974     +0.03801908             
a   3.0185442      Node   167.02548     -0.03229339     +0.93118476             
e   0.2940232      Incl.    2.20306     -0.02184209     +0.36255963             
P   5.24                                                                        
From 26 observations 2021 Aug. 12-Dec. 7, mean residual 0".3.                   
                                                                                
    P/2021 R8 (Sheppard)                                                        
Epoch 2026 Dec. 26.0 TT = JDT 2461400.5                                         
T 2027 Jan. 5.75052 TT                                  Bell                    
q   2.1376684            (2000.0)            P               Q                  
n   0.18775205     Peri.  190.83095     +0.99925376     +0.03764559             
a   3.0205052      Node   167.00225     -0.03194001     +0.93119424             
e   0.2922812      Incl.    2.20283     -0.02172010     +0.36257426             
P   5.25                                                                        
From 26 observations 2021 Aug. 12-Dec. 7, mean residual 0".3.                   
                                                                                
    P/2021 R8 (Sheppard)                                                        
Epoch 2022 Jan. 21.0 TT = JDT 2459600.5                                         
T 2021 Oct. 7.45058 TT                                  Bell                    
q   2.1310089            (2000.0)            P               Q                  
n   0.18805055     Peri.  190.76904     +0.99923023     +0.03826854             
a   3.0173080      Node   167.02845     -0.03252630     +0.93117842             
e   0.2937384      Incl.    2.20332     -0.02193158     +0.36254968             
P   5.24                                                                        
From 26 observations 2021 Aug. 12-Dec. 7, mean residual 0".3.                   
                                                                                
Ephemeris:
Date    TT    R. A. (2000) Decl.     Delta      r    Elong.  Phase   m1
2021 11 07    23 07 47.9 -06 53 29   1.4556  2.1399   120.8    23.4  22.6
...
2021 11 22    23 19 03.5 -05 51 02   1.6198  2.1507   108.7    25.8  22.9
...
2021 11 30    23 27 00.9 -05 03 38   1.7143  2.1581   102.7    26.5  23.0
...
2021 12 06    23 33 44.1 -04 22 32   1.7874  2.1644    98.5    26.8  23.1
2021 12 07    23 34 54.8 -04 15 16   1.7998  2.1655    97.8    26.8  23.1
2021 12 08    23 36 06.4 -04 07 52   1.8122  2.1666    97.1    26.8  23.1
...
2021 12 14    23 43 34.3 -03 21 14   1.8873  2.1737    93.0    26.9  23.3
...
2021 12 22    23 54 15.6 -02 13 38   1.9890  2.1842    87.8    26.7  23.4
...
2022 01 06    00 16 09.5 +00 06 25   2.1824  2.2065    78.4    25.9  23.6

(MPEC 2021-X149、CBET 5079)

スレッド表示 | 新しいものから 前のトピック | 次のトピック | トップ

投稿するにはまず登録を
 
© 1999 Tsutomu Seki.